EW6470 Weather Reports


Display with metric or nautical units.
time (UTC)temp
F
wind
direction
speed
MPH
gust
MPH
rain 1hr
in
rain 24hr
in
rain mn
in
humidity
%
barometer
mb
20210306041541 19 0 0.0 0.0 0.00 0.00 0.00 84 996.2
20210306041028 19 0 0.0 0.0 0.00 0.00 0.00 82 996.2
20210306040543 20 0 0.0 0.0 0.00 0.00 0.00 84 996.1
20210306040053 20 0 0.0 0.0 0.00 0.00 0.00 84 996.0
20210306035748 21 0 0.0 0.0 0.00 0.00 0.00 84 996.0
20210306035112 21 0 0.0 0.0 0.00 0.00 0.00 83 995.9
20210306034529 21 0 0.0 0.0 0.00 0.00 0.00 82 996.0
20210306034034 22 0 0.0 0.0 0.00 0.00 0.00 83 995.9
20210306033526 22 0 0.0 0.0 0.00 0.00 0.00 82 995.9
20210306033052 22 0 0.0 0.0 0.00 0.00 0.00 81 995.9
20210306032916 23 0 0.0 0.0 0.00 0.00 0.00 80 995.9
20210306032423 23 0 0.0 0.0 0.00 0.00 0.00 80 995.8
20210306031552 24 0 0.0 0.0 0.00 0.00 0.00 80 995.8
20210306031019 24 0 0.0 0.0 0.00 0.00 0.00 80 995.8
20210306030531 24 0 0.0 0.0 0.00 0.00 0.00 79 995.7
20210306030157 25 0 0.0 0.0 0.00 0.00 0.00 78 995.7
20210306025942 25 0 0.0 0.0 0.00 0.00 0.00 78 995.8
20210306025444 25 0 0.0 0.0 0.00 0.00 0.00 77 995.7
20210306024532 25 0 0.0 0.0 0.00 0.00 0.00 77 995.8
20210306024021 26 0 0.0 0.0 0.00 0.00 0.00 76 995.8
20210306023524 26 0 0.0 0.0 0.00 0.00 0.00 76 995.8
20210306023053 26 0 0.0 0.0 0.00 0.00 0.00 75 995.7
20210306022747 26 0 0.0 0.0 0.00 0.00 0.00 75 995.8
20210306022155 27 0 0.0 0.0 0.00 0.00 0.00 74 995.7
20210306021524 27 0 0.0 0.0 0.00 0.00 0.00 75 995.7
20210306021024 27 0 0.0 0.0 0.00 0.00 0.00 74 995.8
20210306020527 27 0 0.0 1.0 0.00 0.00 0.00 74 995.6
20210306020140 27 0 0.0 1.0 0.00 0.00 0.00 73 995.6
20210306020031 27 0 0.0 1.0 0.00 0.00 0.00 73 995.7
20210306015352 27 0 0.0 1.0 0.00 0.00 0.00 72 995.6
20210306014530 27 0 0.0 1.0 0.00 0.00 0.00 72 995.6
20210306014025 27 0 0.0 1.0 0.00 0.00 0.00 71 995.5
20210306013523 28 0 0.0 1.0 0.00 0.00 0.00 70 995.6
20210306013032 28 0 0.0 1.0 0.00 0.00 0.00 69 995.6
20210306012837 28 0 0.0 1.0 0.00 0.00 0.00 69 995.6
20210306012236 28 0 0.0 1.0 0.00 0.00 0.00 68 995.6
20210306011626 28 0 0.0 1.0 0.00 0.00 0.00 68 995.6
20210306011020 28 0 0.0 1.0 0.00 0.00 0.00 67 995.6
20210306010530 28 339 0.0 1.0 0.00 0.00 0.00 66 995.5
20210306010025 28 0 0.0 1.0 0.00 0.00 0.00 66 995.5
20210306005820 28 284 0.0 1.0 0.00 0.00 0.00 66 995.6
20210306005234 28 0 0.0 1.0 0.00 0.00 0.00 65 995.6
20210306004536 28 0 0.0 1.0 0.00 0.00 0.00 64 995.6
20210306004022 28 0 0.0 1.0 0.00 0.00 0.00 63 995.6
20210306003557 29 0 0.0 1.0 0.00 0.00 0.00 63 995.7
20210306003313 29 0 0.0 1.0 0.00 0.00 0.00 62 995.7
20210306003056 29 0 0.0 1.0 0.00 0.00 0.00 63 995.7
20210306002313 29 0 0.0 1.0 0.00 0.00 0.00 63 995.8
20210306001533 29 268 0.0 1.0 0.00 0.00 0.00 63 995.8
20210306001023 29 0 0.0 1.0 0.00 0.00 0.00 63 995.6
20210306000532 29 290 0.0 1.0 0.00 0.00 0.00 63 995.6
20210306000119 29 0 0.0 2.0 0.00 0.00 0.00 62 995.7
20210305235907 29 271 0.0 2.0 0.00 0.00 0.00 61 995.8
20210305235159 29 281 0.0 1.0 0.00 0.00 0.00 61 995.8
20210305234543 29 0 0.0 1.0 0.00 0.00 0.00 59 995.8
20210305234027 29 276 0.0 1.0 0.00 0.00 0.00 60 996.0
20210305233541 28 286 0.0 2.0 0.00 0.00 0.00 60 995.9
20210305233033 29 284 0.0 2.0 0.00 0.00 0.00 60 996.0
20210305232847 29 279 0.0 1.0 0.00 0.00 0.00 60 995.9
20210305232357 29 271 0.0 1.0 0.00 0.00 0.00 59 996.0
20210305231550 29 261 0.0 1.0 0.00 0.00 0.00 57 995.9
20210305231031 29 0 0.0 1.0 0.00 0.00 0.00 56 996.0
20210305230519 29 272 0.0 1.0 0.00 0.00 0.00 57 996.1
20210305230029 29 0 0.0 0.0 0.00 0.00 0.00 56 996.2
20210305225900 29 0 0.0 1.0 0.00 0.00 0.00 54 996.2
20210305225259 28 0 0.0 2.0 0.00 0.00 0.00 54 996.1
20210305224530 29 279 0.0 2.0 0.00 0.00 0.00 54 996.2
20210305224025 29 288 0.0 1.0 0.00 0.00 0.00 52 996.1
20210305223523 29 0 0.0 1.0 0.00 0.00 0.00 53 996.2
20210305223030 29 279 0.0 1.0 0.00 0.00 0.00 51 996.3
20210305222829 29 0 0.0 4.0 0.00 0.00 0.00 52 996.4
20210305222203 29 132 1.0 4.0 0.00 0.00 0.00 52 996.3
20210305221528 29 0 0.0 2.0 0.00 0.00 0.00 52 996.4
20210305221026 30 265 0.0 4.0 0.00 0.00 0.00 52 996.4
20210305220533 30 149 1.0 4.0 0.00 0.00 0.00 51 996.4
20210305220037 30 161 0.0 2.0 0.00 0.00 0.00 49 996.4
20210305215749 30 165 0.0 2.0 0.00 0.00 0.00 47 996.5
20210305215106 30 137 1.0 1.0 0.00 0.00 0.00 47 996.5
20210305214530 30 144 0.0 1.0 0.00 0.00 0.00 49 996.5
20210305214029 30 0 0.0 1.0 0.00 0.00 0.00 50 996.5
20210305213522 30 0 0.0 1.0 0.00 0.00 0.00 50 996.5
20210305213056 30 161 0.0 2.0 0.00 0.00 0.00 47 996.6
20210305212913 30 145 0.0 2.0 0.00 0.00 0.00 47 996.6
20210305212411 30 136 0.0 2.0 0.00 0.00 0.00 47 996.7
20210305211533 30 0 1.0 2.0 0.00 0.00 0.00 47 996.7
20210305211038 30 155 0.0 2.0 0.00 0.00 0.00 46 996.8
20210305210522 30 136 1.0 2.0 0.00 0.00 0.00 46 996.7
20210305210033 30 166 0.0 2.0 0.00 0.00 0.00 46 996.8
20210305205747 29 0 0.0 2.0 0.00 0.00 0.00 47 996.9
20210305205242 29 114 0.0 3.0 0.00 0.00 0.00 48 996.8
20210305204528 29 277 0.0 3.0 0.00 0.00 0.00 50 996.9
20210305204032 28 156 0.0 2.0 0.00 0.00 0.00 50 996.8
20210305203520 27 101 0.0 1.0 0.00 0.00 0.00 49 996.8
20210305203103 27 158 0.0 1.0 0.00 0.00 0.00 52 996.9
20210305202812 27 130 0.0 1.0 0.00 0.00 0.00 50 996.9
20210305202215 27 0 0.0 1.0 0.00 0.00 0.00 49 997.0
20210305201540 27 0 0.0 1.0 0.00 0.00 0.00 51 997.1
20210305201025 26 0 0.0 2.0 0.00 0.00 0.00 54 997.1
20210305200642 26 0 0.0 2.0 0.00 0.00 0.00 53 997.1
20210305200348 26 152 0.0 3.0 0.00 0.00 0.00 54 997.0
20210305195956 26 167 0.0 3.0 0.00 0.00 0.00 52 997.0
20210305195442 26 0 0.0 1.0 0.00 0.00 0.00 52 997.0
20210305194527 25 0 0.0 2.0 0.00 0.00 0.00 53 997.0
20210305194028 25 132 1.0 2.0 0.00 0.00 0.00 53 997.1
20210305193526 25 138 0.0 1.0 0.00 0.00 0.00 53 997.1
20210305193139 25 124 0.0 1.0 0.00 0.00 0.00 55 997.0
20210305192923 25 0 0.0 0.0 0.00 0.00 0.00 57 997.0
20210305192250 24 0 0.0 1.0 0.00 0.00 0.00 58 996.9
20210305191520 24 0 0.0 1.0 0.00 0.00 0.00 58 997.0
20210305191035 24 0 0.0 1.0 0.00 0.00 0.00 60 997.0
20210305190522 23 0 0.0 1.0 0.00 0.00 0.00 65 996.9
20210305190045 23 0 0.0 1.0 0.00 0.00 0.00 60 997.0
20210305185834 23 291 0.0 1.0 0.00 0.00 0.00 62 997.0
20210305185225 23 0 0.0 0.0 0.00 0.00 0.00 60 996.9
20210305184534 23 0 0.0 0.0 0.00 0.00 0.00 61 996.9
20210305184044 23 0 0.0 0.0 0.00 0.00 0.00 61 996.9
20210305183528 23 0 0.0 0.0 0.00 0.00 0.00 61 996.9
20210305183040 23 0 0.0 0.0 0.00 0.00 0.00 60 996.9
20210305182735 23 0 0.0 0.0 0.00 0.00 0.00 63 996.9
20210305182135 23 0 0.0 1.0 0.00 0.00 0.00 64 996.9
20210305181531 22 298 0.0 1.0 0.00 0.00 0.00 67 996.9
20210305181025 22 0 0.0 2.0 0.00 0.00 0.00 66 996.9
20210305180520 22 0 0.0 2.0 0.00 0.00 0.00 63 996.8
20210305180131 21 0 0.0 0.0 0.00 0.00 0.00 66 996.9
20210305175918 21 0 0.0 0.0 0.00 0.00 0.00 67 996.9
20210305175523 20 0 0.0 0.0 0.00 0.00 0.00 70 997.0
20210305174559 20 0 0.0 0.0 0.00 0.00 0.00 69 997.0
20210305174021 20 0 0.0 0.0 0.00 0.00 0.00 70 997.0
20210305173529 19 0 0.0 0.0 0.00 0.00 0.00 72 997.0
20210305173055 19 0 0.0 0.0 0.00 0.00 0.00 75 996.9
20210305172841 19 0 0.0 0.0 0.00 0.00 0.00 73 997.0
20210305172213 19 0 0.0 0.0 0.00 0.00 0.00 75 997.2
20210305171534 18 0 0.0 0.0 0.00 0.00 0.00 75 997.1
20210305171036 18 0 0.0 0.0 0.00 0.00 0.00 71 997.3
20210305170529 18 0 0.0 0.0 0.00 0.00 0.00 72 997.2
20210305170144 18 0 0.0 0.0 0.00 0.00 0.00 73 997.1
20210305165934 19 0 0.0 0.0 0.00 0.00 0.00 72 997.2
20210305165538 19 0 0.0 0.0 0.00 0.00 0.00 71 997.1
20210305164526 19 0 0.0 0.0 0.00 0.00 0.00 72 997.1
20210305164233 19 0 0.0 0.0 0.00 0.00 0.00 70 997.1
20210305164059 19 0 0.0 0.0 0.00 0.00 0.00 70 997.0
20210305163742 19 0 0.0 0.0 0.00 0.00 0.00 70 997.0
20210305163242 19 0 0.0 0.0 0.00 0.00 0.00 69 997.2
20210305162411 20 0 0.0 0.0 0.00 0.00 0.00 64 997.2
20210305161524 20 0 0.0 1.0 0.00 0.00 0.00 65 997.2
20210305161037 20 0 0.0 2.0 0.00 0.00 0.00 65 997.2
20210305160522 20 0 0.0 4.0 0.00 0.00 0.00 64 997.4
20210305160052 19 99 0.0 4.0 0.00 0.00 0.00 64 997.2
20210305155736 19 0 0.0 4.0 0.00 0.00 0.00 66 997.2
20210305155133 19 143 0.0 1.0 0.00 0.00 0.00 67 997.2
20210305154539 19 0 0.0 1.0 0.00 0.00 0.00 68 997.3
20210305154036 19 0 0.0 1.0 0.00 0.00 0.00 67 997.2
20210305153524 19 0 0.0 0.0 0.00 0.00 0.00 67 997.5
20210305153143 19 0 0.0 0.0 0.00 0.00 0.00 68 997.5
20210305153026 19 0 0.0 1.0 0.00 0.00 0.00 66 997.5
20210305152427 19 0 0.0 1.0 0.00 0.00 0.00 66 997.4
20210305151525 19 0 0.0 1.0 0.00 0.00 0.00 65 997.5
20210305151042 20 0 0.0 1.0 0.00 0.00 0.00 66 997.6
20210305150518 20 0 0.0 1.0 0.00 0.00 0.00 66 997.7
20210305150116 20 126 0.0 4.0 0.00 0.00 0.00 67 997.7
20210305145848 20 0 0.0 4.0 0.00 0.00 0.00 65 997.9
20210305145344 20 0 0.0 1.0 0.00 0.00 0.00 65 997.9
20210305144554 20 0 0.0 1.0 0.00 0.00 0.00 65 997.9
20210305144103 20 0 0.0 3.0 0.00 0.00 0.00 64 997.9
20210305143530 20 0 0.0 3.0 0.00 0.00 0.00 65 997.9
20210305143038 20 0 0.0 3.0 0.00 0.00 0.00 64 997.9
20210305142805 20 198 0.0 3.0 0.00 0.00 0.00 66 997.9
20210305142124 20 300 0.0 1.0 0.00 0.00 0.00 66 997.9
20210305141524 19 180 0.0 1.0 0.00 0.00 0.00 67 998.0
20210305141022 20 0 0.0 4.0 0.00 0.00 0.00 68 998.0
20210305140532 20 0 0.0 4.0 0.00 0.00 0.00 66 998.1
20210305140258 20 138 0.0 3.0 0.00 0.00 0.00 66 998.1
20210305140053 20 0 0.0 5.0 0.00 0.00 0.00 67 998.1
20210305135418 20 0 0.0 5.0 0.00 0.00 0.00 67 998.1
20210305134608 19 126 0.0 1.0 0.00 0.00 0.00 65 998.2
20210305134031 19 0 0.0 1.0 0.00 0.00 0.00 67 998.4
20210305133530 19 252 0.0 2.0 0.00 0.00 0.00 66 998.5
20210305133022 19 255 0.0 2.0 0.00 0.00 0.00 68 998.5
20210305132851 19 0 0.0 2.0 0.00 0.00 0.00 66 998.5
20210305132235 19 0 0.0 2.0 0.00 0.00 0.00 66 998.4
20210305131534 19 0 0.0 1.0 0.00 0.00 0.00 67 998.5
20210305131029 19 0 0.0 1.0 0.00 0.00 0.00 67 998.5
20210305130559 19 0 0.0 1.0 0.00 0.00 0.00 68 998.5
20210305130238 19 0 0.0 0.0 0.00 0.00 0.00 69 998.6
20210305130022 19 0 0.0 1.0 0.00 0.00 0.00 68 998.8
20210305125324 19 0 0.0 1.0 0.00 0.00 0.00 68 998.7
20210305124520 19 0 0.0 1.0 0.00 0.00 0.00 69 998.8
20210305124023 19 0 0.0 1.0 0.00 0.00 0.00 70 999.0
20210305123607 19 0 0.0 1.0 0.00 0.00 0.00 69 999.1
20210305123407 19 0 0.0 0.0 0.00 0.00 0.00 70 999.1
20210305123148 19 0 0.0 1.0 0.00 0.00 0.00 69 999.3
20210305122627 19 273 0.0 1.0 0.00 0.00 0.00 67 999.3
20210305121531 19 0 0.0 1.0 0.00 0.00 0.00 68 999.1
20210305121029 19 0 0.0 1.0 0.00 0.00 0.00 70 999.3
20210305120551 19 0 0.0 1.0 0.00 0.00 0.00 69 999.4
20210305120028 19 286 0.0 1.0 0.00 0.00 0.00 69 999.5
20210305115907 19 0 0.0 1.0 0.00 0.00 0.00 69 999.3
20210305115524 19 0 0.0 0.0 0.00 0.00 0.00 70 999.5
20210305114529 20 275 0.0 2.0 0.00 0.00 0.00 68 999.6
20210305114027 20 0 0.0 2.0 0.00 0.00 0.00 66 999.8
20210305113540 20 317 0.0 1.0 0.00 0.00 0.00 66 999.7
20210305113121 20 0 0.0 1.0 0.00 0.00 0.00 66 999.7
20210305112820 20 0 0.0 1.0 0.00 0.00 0.00 66 999.6
20210305112206 20 0 0.0 4.0 0.00 0.00 0.00 66 999.8
20210305111519 20 128 0.0 4.0 0.00 0.00 0.00 66 999.8
20210305111028 20 0 0.0 2.0 0.00 0.00 0.00 65 1000.0
20210305110525 20 279 0.0 2.0 0.00 0.00 0.00 65 999.8
20210305110115 20 142 0.0 2.0 0.00 0.00 0.00 65 999.8
20210305105929 20 0 0.0 1.0 0.00 0.00 0.00 67 999.8
20210305105423 20 253 0.0 1.0 0.00 0.00 0.00 66 999.9
20210305104525 20 150 0.0 1.0 0.00 0.00 0.00 66 1000.0
20210305104028 20 0 0.0 2.0 0.00 0.00 0.00 66 1000.1
20210305103526 20 0 0.0 2.0 0.00 0.00 0.00 67 1000.1
20210305103120 20 0 0.0 2.0 0.00 0.00 0.00 66 1000.0
20210305102745 20 146 0.0 3.0 0.00 0.00 0.00 66 1000.3
20210305102156 20 0 0.0 4.0 0.00 0.00 0.00 67 1000.2
20210305101545 20 0 0.0 4.0 0.00 0.00 0.00 67 1000.4
20210305101045 19 298 0.0 4.0 0.00 0.00 0.00 66 1000.4
20210305100526 20 336 0.0 1.0 0.00 0.00 0.00 67 1000.6
20210305100118 20 302 0.0 1.0 0.00 0.00 0.00 66 1000.6
20210305095841 19 0 0.0 2.0 0.00 0.00 0.00 67 1000.5
20210305095157 20 124 0.0 2.0 0.00 0.00 0.00 67 1000.7
20210305094527 20 0 0.0 3.0 0.00 0.00 0.00 69 1000.7
20210305094027 19 0 0.0 3.0 0.00 0.00 0.00 68 1000.7
20210305093519 19 0 0.0 3.0 0.00 0.00 0.00 66 1000.8
20210305093032 19 140 0.0 3.0 0.00 0.00 0.00 68 1001.0
20210305092809 19 0 0.0 4.0 0.00 0.00 0.00 69 1000.9
20210305092354 19 0 0.0 4.0 0.00 0.00 0.00 71 1001.1
20210305091539 19 134 0.0 2.0 0.00 0.00 0.00 71 1001.1
20210305091032 18 63 0.0 2.0 0.00 0.00 0.00 73 1001.4
20210305090518 18 0 0.0 0.0 0.00 0.00 0.00 75 1001.4
20210305090045 17 0 0.0 0.0 0.00 0.00 0.00 76 1001.6
20210305085752 17 0 0.0 0.0 0.00 0.00 0.00 79 1001.7
20210305085222 16 0 0.0 0.0 0.00 0.00 0.00 80 1001.7
20210305084535 16 0 0.0 0.0 0.00 0.00 0.00 81 1001.9
20210305084035 16 0 0.0 0.0 0.00 0.00 0.00 82 1001.9
20210305083520 16 0 0.0 0.0 0.00 0.00 0.00 82 1002.0
20210305083124 16 0 0.0 0.0 0.00 0.00 0.00 82 1002.2
20210305082905 15 0 0.0 0.0 0.00 0.00 0.00 82 1002.2
20210305082355 15 0 0.0 0.0 0.00 0.00 0.00 83 1002.4
20210305081532 14 0 0.0 0.0 0.00 0.00 0.00 83 1002.2
20210305081023 14 0 0.0 0.0 0.00 0.00 0.00 83 1002.2
20210305080530 13 0 0.0 0.0 0.00 0.00 0.00 83 1002.4
20210305080049 13 0 0.0 0.0 0.00 0.00 0.00 82 1002.3
20210305075928 12 0 0.0 0.0 0.00 0.00 0.00 81 1002.4
20210305075344 12 0 0.0 0.0 0.00 0.00 0.00 80 1002.4
20210305074533 13 0 0.0 0.0 0.00 0.00 0.00 79 1002.4
20210305074035 13 0 0.0 0.0 0.00 0.00 0.00 77 1002.7
20210305073521 14 0 0.0 0.0 0.00 0.00 0.00 77 1002.6
20210305073024 15 0 0.0 0.0 0.00 0.00 0.00 77 1002.6
20210305072818 15 0 0.0 0.0 0.00 0.00 0.00 78 1002.6
20210305072232 15 0 0.0 0.0 0.00 0.00 0.00 76 1002.6
20210305071532 15 0 0.0 0.0 0.00 0.00 0.00 76 1002.6
20210305071024 15 0 0.0 1.0 0.00 0.00 0.00 77 1002.7
20210305070526 14 279 0.0 1.0 0.00 0.00 0.00 79 1002.5
20210305070116 13 0 0.0 1.0 0.00 0.00 0.00 81 1002.5
20210305065827 12 303 0.0 1.0 0.00 0.00 0.00 81 1002.5
20210305065219 11 0 0.0 1.0 0.00 0.00 0.00 81 1002.6
20210305064539 10 322 0.0 1.0 0.00 0.00 0.00 83 1002.6
20210305064021 10 0 0.0 1.0 0.00 0.00 0.00 82 1002.7
20210305063528 10 0 0.0 1.0 0.00 0.00 0.00 83 1002.8
20210305063138 9 0 0.0 1.0 0.00 0.00 0.00 84 1003.1
20210305062935 8 0 0.0 1.0 0.00 0.00 0.00 85 1003.1
20210305062440 8 0 0.0 1.0 0.00 0.00 0.00 83 1003.1
20210305061550 8 0 0.0 0.0 0.00 0.00 0.00 82 1003.1
20210305061025 8 0 0.0 1.0 0.00 0.00 0.00 82 1003.3
20210305060524 8 0 0.0 1.0 0.00 0.00 0.00 84 1003.3
20210305060032 8 0 0.0 1.0 0.00 0.00 0.00 84 1003.3
20210305055832 8 0 0.0 0.0 0.00 0.00 0.00 81 1003.4
20210305055150 8 0 0.0 0.0 0.00 0.00 0.00 83 1003.5
20210305054538 8 0 0.0 1.0 0.00 0.00 0.00 82 1003.6
20210305054019 8 0 0.0 1.0 0.00 0.00 0.00 83 1003.6
20210305053524 9 0 0.0 1.0 0.00 0.00 0.00 82 1003.6
20210305053034 9 0 0.0 1.0 0.00 0.00 0.00 84 1003.7
20210305052806 9 0 0.0 1.0 0.00 0.00 0.00 83 1003.7
20210305052159 9 0 0.0 1.0 0.00 0.00 0.00 83 1003.9
20210305051526 9 0 0.0 1.0 0.00 0.00 0.00 82 1003.7
20210305051029 9 0 0.0 0.0 0.00 0.00 0.00 82 1003.8
20210305050519 9 0 0.0 0.0 0.00 0.00 0.00 82 1003.8
20210305050024 10 0 0.0 0.0 0.00 0.00 0.00 81 1003.9
20210305045813 10 0 0.0 0.0 0.00 0.00 0.00 81 1004.0
20210305045335 10 0 0.0 1.0 0.00 0.00 0.00 80 1003.9
20210305044529 11 0 0.0 1.0 0.00 0.00 0.00 81 1003.9
20210305044027 11 0 0.0 0.0 0.00 0.00 0.00 81 1004.0
20210305043542 11 0 0.0 0.0 0.00 0.00 0.00 81 1004.0
20210305043112 11 0 0.0 0.0 0.00 0.00 0.00 79 1004.2
20210305042911 12 0 0.0 0.0 0.00 0.00 0.00 79 1004.1
20210305042219 12 0 0.0 0.0 0.00 0.00 0.00 79 1004.0